Home   Weather   23°38'N, 102°33'W   Past weeks
Flag for Mexico

Past Weather in 23°38'N, 102°33'W, Mexico — Yesterday and Last 2 Weeks

Now
72 °F

Overcast.


Feels Like: 77 °F
Forecast: 78 / 58 °F
Wind: 17 mph from Southeast

Location: Zacatecas Airport

Current Time: Jun 26, 2019 at 11:23:20 pm

Latest Report: Jun 26, 2019 at 9:50 pm


Visibility: 10 mi

Pressure: 30.28 "Hg

Humidity: 50%

Dew Point: 52 °F

Location of 23°38'N, 102°33'WLocation

Past Weather in 23°38'N, 102°33'W — Graph

°F

23°38'N, 102°33'W Temperature Yesterday

Maximum temperature yesterday: 73 °F (at 11:40 am)
Minimum temperature yesterday: 59 °F (at 6:40 am)
Average temperature yesterday: 65 °F

High & Low Weather Summary for the Past Weeks

 TemperatureHumidityPressure
High84 °F (Jun 15, 3:40 pm)94% (Jun 19, 3:41 am)30.38 "Hg (Jun 19, 3:41 am)
Low55 °F (Jun 12, 6:40 am)17% (Jun 14, 4:52 pm)30.11 "Hg (Jun 24, 6:52 pm)
Average70 °F54%30.25 "Hg
* Reported Jun 11 9:47 pm — Jun 26 9:50 pm, 23°38'N, 102°33'W. Weather by CustomWeather, © 2019

Note: Actual official high and low records may vary slightly from our data, if they occured in-between our weather recording intervals... More about our weather records

Advertising

23°38'N, 102°33'W Weather History for the Previous 24 Hours

Scroll right to see more
 ConditionsComfort  
Time TempWeatherWind HumidityBarometerVisibility
9:50 pm
Wed, Jun 26
72 °FOvercast.17 mph50%30.28 "Hg10 mi
8:50 pm75 °FPassing clouds.14 mph39%30.25 "Hg10 mi
7:50 pm77 °FPartly sunny.10 mph36%30.23 "Hg10 mi
6:56 pm79 °FPartly sunny.14 mph32%30.22 "Hg10 mi
5:42 pm81 °FPartly sunny.18 mph30%30.22 "Hg10 mi
4:42 pm81 °FPartly sunny.9 mph32%30.23 "Hg10 mi
3:44 pm81 °FPartly sunny.3 mph28%30.24 "Hg10 mi
2:59 pm79 °FPartly sunny.7 mph24%30.25 "Hg10 mi
1:48 pm79 °FScattered clouds.12 mph26%30.28 "Hg10 mi
12:47 pm75 °FScattered clouds.12 mph50%30.29 "Hg10 mi
11:44 am73 °FScattered clouds.6 mph50%30.29 "Hg10 mi
10:41 am70 °FPassing clouds.6 mph69%30.31 "Hg10 mi
9:41 am66 °FSunny.No wind78%30.31 "Hg10 mi
8:49 am63 °FSunny.No wind83%30.30 "Hg10 mi
7:48 am59 °FSunny.No wind88%30.28 "Hg10 mi
6:52 am57 °FPassing clouds.No wind94%30.27 "Hg10 mi
5:43 am59 °FPassing clouds.No wind88%30.27 "Hg10 mi
3:45 am63 °FPassing clouds.No wind83%30.27 "Hg10 mi
1:46 am61 °FPassing clouds.No wind83%30.28 "Hg10 mi
12:14 am63 °FPassing clouds.No wind83%30.27 "Hg10 mi
Weather by CustomWeather, © 2019

See weather overview